sat.trackr.live / text

‹ back to catalog

STARLINK-5726

NORAD 55608 · 2023-020AR

PAYLOAD ACTIVE UNKNOWN

§ Identity

Operator
Country
US
Launch date
2023-02-12
Launch site
AFETR
Launch vehicle
Mass (kg)
RCS (m²)

Purposes: comms

External: N2YO · Heavens-Above · Gunter

§ Orbital elements

Epoch: 2026-05-25T02:27:08.420256Z

Period
94.27 min
Inclination
43.0052°
Eccentricity
0.0002168
Mean motion
15.27576863 rev/d
Perigee alt
481.6 km
Apogee alt
484.5 km
Semi-major
6,861.2 km
B*
5.8800e-6
RAAN
282.8598°
Arg perigee
282.1085°
Mean anomaly
77.9524°
Rev number
18,072

§ Raw data

STARLINK-57261 55608U 23020AR  26145.10218079 -.00000101  00000+0  58800-5 0  99952 55608  43.0052 282.8598 0002168 282.1085  77.9524 15.27576863180727

JSON: /api/v1/satellites/55608 · /tle

For live sub-satellite position, see the globe view (requires WebGL).

§ Visibility from observer

Set your observer location to see the next 7 days of passes ≥ 10°. The values pass through the URL so the page stays shareable.

No JS? Fill the form by hand. The geolocation button needs JavaScript.